Regional Weather Roundup
Issued by NWS Charleston, SC

Current Version | Previous Version | Text Only | Print | Product List | Glossary Off
Versions: 1 2 3 4 5 6 7 8 9 10 11 12 13 14 15 16 17 18 19 20 21 22 23 24 25 26 27 28 29 30 31 32 33 34 35 36 37 38 39 40 41 42 43 44 45 46 47 48 49 50

000
ASUS42 KCHS 031712
RWRCHS

REGIONAL WEATHER ROUNDUP
NATIONAL WEATHER SERVICE CHARLESTON SC
100 PM EDT WED JUN 03 2015

NOTE: "FAIR" INDICATES FEW OR NO CLOUDS BELOW 12,000 FEET WITH NO
SIGNIFICANT WEATHER AND/OR OBSTRUCTIONS TO VISIBILITY.

NOT ALL STATIONS ARE QUALITY CONTROLLED BY THE NATIONAL
WEATHER SERVICE. USE DATA WITH CAUTION...ESPECIALLY
DEWPOINT OBSERVATIONS.

SCZ027-030-031-034>040-042>050-031800-
...SOUTHEAST SOUTH CAROLINA...

CITY           SKY/WX    TMP DP  RH WIND       PRES   REMARKS
N CHARLESTON   CLOUDY    70  67  90 SE7       30.01S
WATERFRONT PAR   N/A     71  69  93 SE14      29.99S
MOUNT PLEASANT RAIN      70  70 100 SE5       30.02S
JOHNS ISLAND   PTSUNNY   70  68  94 E10       30.01F
PINOPOLIS      NOT AVBL
MONCKS CORNER  FAIR      70  66  88 CALM      30.01S
SUMMERVILLE    FAIR      70  70 100 E3        30.02S
BEAUFORT MCAS  PTSUNNY   79  70  74 SE6       30.00S
BEAUFORT ARPT  FAIR      77  70  78 E9        30.00R HAZE
HILTON HEAD IS PTSUNNY   73  66  78 NE6       30.01S
WALTERBORO     CLOUDY    72  68  88 SE7       30.01S
ALLENDALE      CLOUDY    77  68  73 VRB5      29.99F

...SOUTHERN MIDLANDS AND PEE DEE...

CITY           SKY/WX    TMP DP  RH WIND       PRES   REMARKS
GEORGETOWN     NOT AVBL
KINGSTREE      NOT AVBL
ORANGEBURG     CLOUDY    74  67  78 SE5       30.02S
BARNWELL       PTSUNNY   77  66  69 E8        30.01F
AIKEN          CLOUDY    75  63  64 NE7       30.05S
MANNING        PTSUNNY   70  64  83 NE3       30.03S
COLUMBIA       CLOUDY    73  65  75 NE6       30.02F
SUMTER         CLOUDY    71  65  82 E6        30.02S
FLORENCE       CLOUDY    72  66  81 NE6       30.04S
MYRTLE BEACH   CLOUDY    73  68  83 E12       30.03F
N MYRTLE BEACH LGT RAIN  72  69  90 E5        30.03F

$$

GAZ063-065-086>088-099>101-113>116-118-119-134>141-150-031800-
...SOUTHEAST GEORGIA...

CITY           SKY/WX    TMP DP  RH WIND       PRES   REMARKS
SAVANNAH ARPT  PTSUNNY   82  68  62 VRB6      29.97F
HUNTER AAF     PTSUNNY   82  72  72 SE10      29.95S
FORT STEWART   CLOUDY    84  67  57 SW6       29.94F
STATESBORO     MOSUNNY   83  72  69 N5        29.98S
SYLVANIA       PTSUNNY   82  71  70 E6        30.00S
CLAXTON        PTSUNNY   82  70  65 SE5       29.97F

...CSRA...CENTRAL AND FAR SOUTHEAST GEORGIA...

CITY           SKY/WX    TMP DP  RH WIND       PRES   REMARKS
THOMSON        MOSUNNY   79  67  67 E8        30.06S
AUGUSTA-BUSH   PTSUNNY   79  66  64 E7        30.00S
AUGUSTA-DANIEL PTSUNNY   77  64  64 NE7       30.02S
SWAINSBORO     PTSUNNY   82  70  65 CALM      29.99F
VIDALIA        MOSUNNY   81  70  69 SW6       29.98F
EASTMAN        CLOUDY    80  71  75 CALM      29.99F THUNDER
HAZLEHURST     PTSUNNY   83  71  66 SE3       29.96F
ALMA           PTSUNNY   82  69  64 CALM      29.97F
WAYCROSS       MOSUNNY   83  71  67 NE5       29.97F
JESUP          PTSUNNY   88  70  55 NW5       29.97F HX  92
BAXLEY         FAIR      82  70  65 CALM      29.98S
BRUNSWICK      PTSUNNY   77  66  69 NE8       29.99S
SAINT SIMONS   NOT AVBL

$$

SCZ027-028-034-036>038-045-046-048>050-GAZ119-141-031800-
...LAKE AND SUPPLEMENTAL COASTAL OBSERVATIONS...

STATION/POSITION TIME  TEMP    WIND        PRES    WAVE   SWELL
                       AIR SEA DIR/SP/G            HT/PER HT/PER/DIR
                 (UTC) (F)     (DEG/KT/KT) (MB)    (FT/S) (FT/S/D)
UPR LAKE MARION  NOT AVBL
WINYAH BAY       NOT AVBL
LAKE MURRAY      1600   72      40/  2/  5 1016.6R
ACE BASIN NERRS  NOT AVBL
FORT PULASKI     1600   76 81   90/ 10/ 11 1016.0R
SAPELO ISLAND    1600   80      10/  6     1015.0S

$$

ANZ835-935-AMZ111-154-330-350-352-354-370-450-454-472-031800-
...C-MAN AND BUOY OBSERVATIONS...

STATION/POSITION TIME  TEMP    WIND        PRES    WAVE   SWELL
                       AIR SEA DIR/SP/G            HT/PER HT/PER/DIR
                 (UTC) (F)     (DEG/KT/KT) (MB)    (FT/S) (FT/S/D)
BUOY 41004       1650   72 79   10/  4/  6 1017.3R   2/ 8   2/ 8
BUOY 41008       1650   76 80   10/  8/ 10 1015.9F   2/ 8   2/ 90/ 8
FOLLY BEACH CMAN 1700   71     130/ 15/ 17 1016.4F
CAPERS NEARSHORE 1608   72     130/ 12/ 14 1017.2R
FRIPP NEARSHORE  1600   73     110/ 10/ 12 1015.6R


STATION/POSITION TIME  TEMP    WIND        PRES    WAVE   SWELL
                       AIR SEA DIR/SP/G            HT/PER HT/PER/DIR
                 (UTC) (F)     (DEG/KT/KT) (MB)    (FT/S) (FT/S/D)
5E ST. MARYS GA  1621      82                N/A     2/ 8
FRYING PAN BUOY  1650   76 76   90/ 12/ 14 1017.2R   3/ 8   2/110/ 8
BUOY 41025       1650   75 81  360/  8/ 10 1017.6F   3/ 8   2/130/ 8
CAPE LOOKOUT NC  1700   74      30/  9/ 11 1016.7F
BUOY 41002       1650   77 76  160/ 10/ 10 1017.5S   3/ 8   3/120/ 8
BUOY 41010       1620   75 80   90/ 10/ 14 1015.8F
ST AUGUSTINE FL  1700   76 78   90/  6/  7 1016.2F


$$



USA.gov is the U.S. government's official web portal to all federal, state and local government web resources and services.